Regional Weather Roundup
Issued by NWS

Home | Current Version | Previous Version | Graphics & Text | Print | Product List | Glossary On
Versions: 1 2 3 4 5 6 7 8 9 10 11 12 13 14 15 16 17 18 19 20 21 22 23 24 25 26 27 28 29 30 31 32 33 34 35 36 37 38 39 40 41 42 43 44 45 46 47 48 49 50
000
ASUS43 KOAX 161610
RWRNE

WEATHER ROUNDUP FOR NEBRASKA
NATIONAL WEATHER SERVICE OMAHA NE
1000 AM CST TUE JAN 16 2018

NOTES: SATELLITE DATA IS BEING USED TO AUGMENT CLOUD COVER ABOVE
       12000 FEET.
       "FAIR" INDICATES FEW OR NO CLOUDS BELOW 12,000 FEET WITH NO
       SIGNIFICANT WEATHER AND/OR OBSTRUCTIONS TO VISIBILITY.


NEZ001>004-019>022-054>056-161700-
NEBRASKA PANHANDLE

CITY           SKY/WX    TMP DP  RH WIND       PRES   REMARKS
SCOTTSBLUFF    SUNNY     -4  -9  79 CALM      30.53S
ALLIANCE       SUNNY    -11 -12  96 CALM      30.52S
CHADRON        SUNNY     -5 -10  79 CALM      30.55F
GORDON         FAIR      -3  -9  74 SW6       30.53F WCI -15
KIMBALL        SUNNY     10   3  72 W8        30.45S WCI  -2
SIDNEY         SUNNY      8   0  69 SW8       30.51S WCI  -4
$$

NEZ057>060-069>072-079>082-161700-
SOUTHWEST NEBRASKA

CITY           SKY/WX    TMP DP  RH WIND       PRES   REMARKS
NORTH PLATTE   SUNNY      1 -11  57 NW5       30.67S WCI  -9
IMPERIAL       SUNNY      3  -4  72 NW5       30.63S WCI  -6
LEXINGTON      SUNNY      1  -9  65 NW10      30.71R WCI -16
MCCOOK         SUNNY      2  -7  66 W9        30.71R WCI -13
OGALLALA       SUNNY      2  -4  75 SW3       30.63S
$$

NEZ005>010-023>029-035>040-094-161700-
NORTH CENTRAL NEBRASKA

CITY           SKY/WX    TMP DP  RH WIND       PRES   REMARKS
VALENTINE      SUNNY     -3 -11  68 SW8       30.65F WCI -18
AINSWORTH      SUNNY     -3 -10  70 W5        30.66S WCI -14
BROKEN BOW     SUNNY     -2 -13  59 NW6       30.68S WCI -14
O`NEILL        SUNNY     -4 -11  71 NW10      30.71F WCI -21
ORD            MOSUNNY   -3  -8  79 N13       30.72R WCI -22
THEDFORD       SUNNY     -2 -12  62 W5        30.65R WCI -12
$$

NEZ041-046>049-061>064-073>077-083>087-161700-
SOUTH CENTRAL NEBRASKA

CITY           SKY/WX    TMP DP  RH WIND       PRES   REMARKS
GRAND ISLAND   PTSUNNY    2  -2  83 NW10      30.73S WCI -14
AURORA         SUNNY      4  -2  75 N17       30.73S WCI -15
HASTINGS       PTSUNNY    2  -4  76 N15       30.73R WCI -17
HEBRON         MOSUNNY    4  -2  75 N10       30.78R WCI -11
HOLDREGE       CLOUDY     1  -6  74 N10       30.70S WCI -16
KEARNEY        CLOUDY    -3 -10  72 N13       30.73S WCI -22
YORK           MOSUNNY    5   0  78 N10G17    30.73S WCI -10
$$

NEZ011>018-030>034-042>045-161700-
NORTHEAST NEBRASKA

CITY           SKY/WX    TMP DP  RH WIND       PRES   REMARKS
NORFOLK        SUNNY      0  -6  76 NW18      30.73R WCI -21
ALBION         SUNNY      2  -4  74 NW13G21   30.73R WCI -15
BLAIR          CLOUDY     0  -7  74 NW14      30.74R WCI -19
COLUMBUS       SUNNY      6  -2  69 NW12      30.77R WCI  -9
FREMONT        CLOUDY     1  -6  72 N10G18    30.77S WCI -14
TEKAMAH        CLOUDY    -1  -8  72 N12       30.79R WCI -18
WAYNE          CLOUDY    -2  -9  72 N15       30.75R WCI -22
$$

NEZ050>053-065>068-078-088>093-161700-
SOUTHEAST NEBRASKA

CITY           SKY/WX    TMP DP  RH WIND       PRES   REMARKS
LINCOLN        CLOUDY     3  -5  69 N12       30.79R WCI -13
OMAHA EPPLEY   FLURRIES   1  -6  72 N15       30.78R WCI -18
BEATRICE       CLOUDY     4  -3  74 N14       30.77R WCI -14
FALLS CITY     SUNNY      0  -8  69 N13G22    30.78R WCI -18
NEBRASKA CITY  SUNNY      1  -5  78 N9        30.76R WCI -15
PLATTSMOUTH    PTSUNNY    1  -5  76 NW15      30.75S WCI -19
$$

NEZ044-045-051>053-067-161700-
OMAHA AREA

CITY           SKY/WX    TMP DP  RH WIND       PRES   REMARKS
OMAHA EPPLEY   FLURRIES   1  -6  72 N15       30.78R WCI -18
BLAIR          CLOUDY     0  -7  74 NW14      30.74R WCI -19
FREMONT        CLOUDY     1  -6  72 N10G18    30.77S WCI -14
MILLARD        CLOUDY     2  -5  71 NW13G20   30.79R WCI -15
OFFUTT AFB     PTSUNNY    1  -7  69 NW9       30.77R WCI -14
PLATTSMOUTH    PTSUNNY    1  -5  76 NW15      30.75S WCI -19
WAHOO          PTSUNNY    2  -4  73 MISG      30.76S
$$




USA.gov is the U.S. government's official web portal to all federal, state and local government web resources and services.